Home > Weather > Corvallis > Past weeks

Flag for USA Weather for the Past 2 Weeks in Corvallis, Oregon, USA

Now
82 °F

Pleasantly warm.


Feels Like: 81 °F
Forecast: 50 / 80 °F
Wind: No wind

Location: Corvallis Municipal

Current Time: May 2, 2016 at 2:44:39 PM

Latest Report: May 2, 2016 at 1:55 PM


Visibility: 10 mi

Pressure: 29.95 "Hg

Humidity: 37%

Dew Point: 54 °F

Location of CorvallisLocation

Historic Weather in Corvallis — Graph

°F

Corvallis Temperature Yesterday

Maximum temperature yesterday: 82 °F (at 4:35 PM)
Minimum temperature yesterday: 43 °F (at 5:55 AM)
Average temperature yesterday: 62 °F

High & Low Weather Summary for the Past Weeks

 TemperatureHumidityPressure
High90 °F (Apr 18, 4:55 PM)100% (Apr 30, 7:35 AM)30.38 "Hg (Apr 30, 7:35 AM)
Low36 °F (Apr 26, 4:35 AM)22% (Apr 18, 5:35 PM)29.60 "Hg (Apr 22, 3:35 AM)
Average56 °F70%30.05 "Hg
* Reported Apr 17 1:15 PM — May 2 1:35 PM, Corvallis, Weather by CustomWeather, © 2016

Note: Actual official high and low records may vary slightly from our data, if they occured in-between our weather recording intervals... More about our weather records

Advertising

Corvallis Weather History for the Previous 24 Hours

Scroll right to see more
 ConditionsComfort  
Time TempWeatherWind HumidityBarometerVisibility
1:35 PM
Mon, May 2
81 °FPleasantly warm.No wind39%29.95 "Hg10 mi
1:15 PM81 °FPleasantly warm.No wind39%29.96 "Hg10 mi
12:55 PM81 °FPleasantly warm.No wind39%29.96 "Hg10 mi
12:35 PM79 °FWarm.No wind42%29.97 "Hg10 mi
12:15 PM77 °FWarm.No wind44%29.97 "Hg10 mi
11:55 AM75 °FMild.No wind44%29.98 "Hg10 mi
11:35 AM72 °FMild.No wind50%29.98 "Hg10 mi
11:15 AM70 °FMild.No wind60%29.98 "Hg10 mi
10:55 AM66 °FMild.No wind68%29.98 "Hg10 mi
10:35 AM70 °FMild.No wind60%29.98 "Hg10 mi
10:15 AM66 °FMild.No wind68%29.98 "Hg10 mi
9:55 AM66 °FMild.No wind68%29.98 "Hg10 mi
9:35 AM64 °FMild.6 mph68%29.98 "Hg10 mi
9:15 AM61 °FCool.No wind72%29.98 "Hg10 mi
8:55 AM61 °FCool.No wind72%29.98 "Hg10 mi
8:35 AM55 °FCool.No wind77%29.98 "Hg10 mi
8:15 AM55 °FCool.No wind77%29.98 "Hg10 mi
7:55 AM55 °FCool.No wind77%29.98 "Hg10 mi
7:35 AM54 °FCool.No wind82%29.97 "Hg10 mi
7:15 AM50 °FCool.No wind88%29.96 "Hg10 mi
6:55 AM48 °FCool.No wind94%29.96 "Hg10 mi
6:35 AM48 °FCool.3 mph87%29.95 "Hg10 mi
6:15 AM48 °FCool.No wind87%29.94 "Hg10 mi
5:55 AM48 °FCool.No wind94%29.94 "Hg10 mi
5:35 AM48 °FCool.No wind87%29.94 "Hg10 mi
5:15 AM48 °FCool.No wind87%29.94 "Hg10 mi
4:55 AM48 °FCool.No wind87%29.94 "Hg10 mi
4:35 AM48 °FCool.6 mph94%29.93 "Hg10 mi
4:15 AM48 °FCool.5 mph87%29.93 "Hg10 mi
3:55 AM48 °FCool.5 mph87%29.92 "Hg10 mi
3:35 AM50 °FCool.3 mph88%29.91 "Hg10 mi
3:15 AM50 °FCool.3 mph88%29.91 "Hg10 mi
2:55 AM52 °FCool.No wind82%29.90 "Hg10 mi
2:35 AM52 °FCool.No wind82%29.90 "Hg10 mi
1:55 AM54 °FCool.5 mph77%29.90 "Hg10 mi
1:35 AM52 °FCool.5 mph88%29.90 "Hg10 mi
12:55 AM54 °FCool.6 mph88%29.89 "Hg10 mi
12:35 AM55 °FCool.No wind77%29.89 "Hg10 mi
12:15 AM54 °FCool.No wind82%29.89 "Hg10 mi
11:55 PM
Sun, May 1
54 °FCool.3 mph88%29.89 "Hg10 mi
11:35 PM57 °FCool.No wind72%29.88 "Hg10 mi
11:15 PM61 °FCool.No wind63%29.88 "Hg10 mi
10:15 PM59 °FCool.5 mph72%29.87 "Hg10 mi
9:55 PM59 °FCool.6 mph77%29.87 "Hg10 mi
9:15 PM63 °FMild.7 mph68%29.87 "Hg10 mi
8:55 PM64 °FMild.6 mph64%29.86 "Hg10 mi
7:55 PM72 °FMild.5 mph53%29.85 "Hg10 mi
7:35 PM77 °FPleasantly warm.6 mph36%29.85 "Hg10 mi
6:55 PM81 °FPleasantly warm.6 mph30%29.85 "Hg10 mi
6:35 PM81 °FPleasantly warm.6 mph32%29.86 "Hg10 mi
6:15 PM81 °FPleasantly warm.7 mph32%29.87 "Hg10 mi
5:55 PM81 °FPleasantly warm.7 mph32%29.87 "Hg10 mi
5:35 PM81 °FPleasantly warm.9 mph34%29.87 "Hg10 mi
5:15 PM81 °FPleasantly warm.10 mph32%29.88 "Hg10 mi
4:55 PM82 °FPleasantly warm.12 mph32%29.89 "Hg10 mi
4:35 PM82 °FPleasantly warm.9 mph32%29.89 "Hg10 mi
3:55 PM81 °FPleasantly warm.9 mph32%29.91 "Hg10 mi
3:35 PM81 °FPleasantly warm.10 mph34%29.92 "Hg10 mi
2:55 PM79 °FPleasantly warm.12 mph34%29.94 "Hg10 mi
2:35 PM79 °FPleasantly warm.9 mph34%29.95 "Hg10 mi
Weather by CustomWeather, © 2016

See weather overviewHow to use our weather pages